• en Suisse
  • Liste des pays
  • À 7 jours
  • Température de l'eau
  • Carte satellitaire
  • Carte météo
  • Widgets météo
  • user-avatar
    Se connecter

    Météo par heure à Verhniy Tabyn

    Ce jour, 22 Septembre, Samedi

    Heure Température Précipitation Vent Pression Humidité
    00:00 +9°C° 0 mm 1 m/s 753 mmHg 80%
    01:00 +9°C° 0 mm 1 m/s 753 mmHg 81%
    02:00 +9°C° 0 mm 1 m/s 753 mmHg 84%
    03:00 +9°C° 0 mm 1 m/s 754 mmHg 86%
    04:00 +8°C° 0 mm 2 m/s 754 mmHg 89%
    05:00 +9°C° 0 mm 2 m/s 754 mmHg 91%
    06:00 +9°C° 0 mm 2 m/s 754 mmHg 93%
    07:00 +9°C° 0 mm 2 m/s 754 mmHg 95%
    08:00 +12°C° 0 mm 2 m/s 754 mmHg 92%
    09:00 +12°C° 0 mm 3 m/s 754 mmHg 89%
    10:00 +14°C° 0 mm 3 m/s 754 mmHg 86%
    11:00 +15°C° 0 mm 4 m/s 754 mmHg 84%
    12:00 +17°C° 0 mm 4 m/s 754 mmHg 82%
    13:00 +18°C° 0 mm 4 m/s 754 mmHg 80%
    14:00 +19°C° 0.1 mm 4 m/s 754 mmHg 79%
    15:00 +20°C° 0.1 mm 4 m/s 754 mmHg 78%
    16:00 +20°C° 0.1 mm 4 m/s 753 mmHg 77%
    17:00 +19°C° 0.3 mm 4 m/s 753 mmHg 82%
    18:00 +18°C° 0.3 mm 3 m/s 753 mmHg 87%
    19:00 +17°C° 0.3 mm 3 m/s 753 mmHg 92%
    20:00 +17°C° 0.2 mm 3 m/s 753 mmHg 93%
    21:00 +16°C° 0.2 mm 3 m/s 753 mmHg 94%
    22:00 +16°C° 0.2 mm 2 m/s 754 mmHg 94%
    23:00 +16°C° 0 mm 2 m/s 754 mmHg 94%

    Demain, 23 Septembre, Dimanche

    Heure Température Précipitation Vent Pression Humidité
    00:00 +15°C° 0 mm 2 m/s 754 mmHg 94%
    01:00 +15°C° 0 mm 2 m/s 754 mmHg 94%
    02:00 +15°C° 0 mm 2 m/s 754 mmHg 94%
    03:00 +15°C° 0 mm 2 m/s 754 mmHg 94%
    04:00 +14°C° 0 mm 2 m/s 754 mmHg 94%
    05:00 +14°C° 0 mm 2 m/s 754 mmHg 94%
    06:00 +14°C° 0 mm 2 m/s 754 mmHg 94%
    07:00 +14°C° 0 mm 2 m/s 754 mmHg 94%
    08:00 +16°C° 0 mm 2 m/s 754 mmHg 89%
    09:00 +17°C° 0 mm 2 m/s 754 mmHg 83%
    10:00 +19°C° 0 mm 2 m/s 754 mmHg 78%
    11:00 +20°C° 0 mm 2 m/s 754 mmHg 74%
    12:00 +21°C° 0 mm 3 m/s 754 mmHg 69%
    13:00 +24°C° 0 mm 3 m/s 753 mmHg 65%
    14:00 +24°C° 0 mm 3 m/s 753 mmHg 65%
    15:00 +24°C° 0 mm 3 m/s 753 mmHg 64%
    16:00 +24°C° 0 mm 3 m/s 753 mmHg 64%
    17:00 +21°C° 0 mm 3 m/s 752 mmHg 70%
    18:00 +20°C° 0 mm 3 m/s 752 mmHg 77%
    19:00 +18°C° 0 mm 2 m/s 752 mmHg 83%
    20:00 +18°C° 0 mm 3 m/s 752 mmHg 85%
    21:00 +17°C° 0 mm 3 m/s 752 mmHg 86%
    22:00 +17°C° 0 mm 3 m/s 752 mmHg 88%
    23:00 +16°C° 0 mm 3 m/s 752 mmHg 88%

    Après-demain, 24 Septembre, Lundi

    Heure Température Précipitation Vent Pression Humidité
    00:00 +16°C° 0 mm 3 m/s 751 mmHg 88%
    01:00 +16°C° 0 mm 3 m/s 751 mmHg 88%
    02:00 +16°C° 0 mm 3 m/s 751 mmHg 87%
    03:00 +14°C° 0 mm 4 m/s 751 mmHg 86%
    04:00 +14°C° 0 mm 4 m/s 751 mmHg 86%
    05:00 +14°C° 0 mm 4 m/s 750 mmHg 83%
    06:00 +14°C° 0 mm 4 m/s 750 mmHg 81%
    07:00 +13°C° 0 mm 4 m/s 750 mmHg 79%
    08:00 +15°C° 0 mm 5 m/s 750 mmHg 70%
    09:00 +16°C° 0 mm 6 m/s 749 mmHg 61%
    10:00 +19°C° 0 mm 6 m/s 749 mmHg 52%
    11:00 +20°C° 0 mm 6 m/s 749 mmHg 49%
    12:00 +21°C° 0 mm 7 m/s 749 mmHg 46%
    13:00 +22°C° 0 mm 7 m/s 749 mmHg 44%
    14:00 +22°C° 0 mm 6 m/s 749 mmHg 46%
    15:00 +22°C° 0 mm 5 m/s 748 mmHg 48%
    16:00 +21°C° 0 mm 4 m/s 748 mmHg 51%
    17:00 +20°C° 0 mm 4 m/s 749 mmHg 55%
    18:00 +18°C° 0 mm 3 m/s 749 mmHg 59%
    19:00 +17°C° 0 mm 3 m/s 749 mmHg 63%
    20:00 +16°C° 0 mm 3 m/s 749 mmHg 66%
    21:00 +15°C° 0 mm 2 m/s 749 mmHg 70%
    22:00 +14°C° 0 mm 2 m/s 749 mmHg 73%
    23:00 +14°C° 0 mm 1 m/s 749 mmHg 74%

    25 Septembre, Mardi

    Heure Température Précipitation Vent Pression Humidité
    00:00 +14°C° 0 mm 1 m/s 748 mmHg 75%
    01:00 +14°C° 0 mm 1 m/s 748 mmHg 76%
    02:00 +14°C° 0 mm 1 m/s 748 mmHg 76%
    03:00 +13°C° 0 mm 1 m/s 748 mmHg 77%
    04:00 +13°C° 0 mm 2 m/s 747 mmHg 77%
    05:00 +13°C° 0 mm 2 m/s 747 mmHg 78%
    06:00 +13°C° 0 mm 2 m/s 747 mmHg 78%
    07:00 +12°C° 0 mm 2 m/s 746 mmHg 79%
    08:00 +13°C° 0 mm 3 m/s 746 mmHg 76%
    09:00 +14°C° 0 mm 4 m/s 746 mmHg 73%
    10:00 +15°C° 0 mm 5 m/s 746 mmHg 70%
    11:00 +15°C° 0 mm 6 m/s 746 mmHg 70%
    12:00 +16°C° 0 mm 7 m/s 746 mmHg 70%
    13:00 +16°C° 0 mm 7 m/s 746 mmHg 70%
    14:00 +15°C° 0.3 mm 7 m/s 746 mmHg 71%
    15:00 +14°C° 0.3 mm 6 m/s 746 mmHg 73%
    16:00 +13°C° 0.3 mm 5 m/s 746 mmHg 74%
    17:00 +13°C° 0.3 mm 5 m/s 746 mmHg 75%
    18:00 +12°C° 0.3 mm 5 m/s 745 mmHg 75%
    19:00 +12°C° 0.3 mm 5 m/s 745 mmHg 75%
    20:00 +12°C° 0.5 mm 5 m/s 745 mmHg 77%
    21:00 +11°C° 0.5 mm 6 m/s 745 mmHg 80%
    22:00 +11°C° 0.5 mm 6 m/s 745 mmHg 82%
    23:00 +11°C° 0.5 mm 6 m/s 744 mmHg 82%

    26 Septembre, Mercredi

    Heure Température Précipitation Vent Pression Humidité
    00:00 +11°C° 0.5 mm 6 m/s 744 mmHg 83%
    01:00 +11°C° 0.5 mm 6 m/s 744 mmHg 84%
    02:00 +10°C° 0.5 mm 5 m/s 744 mmHg 85%
    03:00 +10°C° 0.5 mm 5 m/s 744 mmHg 86%
    04:00 +9°C° 0.5 mm 5 m/s 744 mmHg 87%
    05:00 +8°C° 0 mm 5 m/s 744 mmHg 87%
    06:00 +8°C° 0 mm 6 m/s 745 mmHg 86%
    07:00 +7°C° 0 mm 6 m/s 745 mmHg 86%
    08:00 +8°C° 0 mm 7 m/s 746 mmHg 80%
    09:00 +7°C° 0 mm 8 m/s 746 mmHg 75%
    10:00 +8°C° 0 mm 9 m/s 747 mmHg 69%
    11:00 +8°C° 0 mm 9 m/s 747 mmHg 68%
    12:00 +9°C° 0 mm 8 m/s 747 mmHg 67%
    13:00 +9°C° 0 mm 8 m/s 748 mmHg 66%
    14:00 +9°C° 0 mm 8 m/s 748 mmHg 66%
    15:00 +9°C° 0 mm 8 m/s 749 mmHg 66%
    16:00 +9°C° 0 mm 7 m/s 749 mmHg 66%
    17:00 +8°C° 0 mm 7 m/s 750 mmHg 67%
    18:00 +8°C° 0 mm 6 m/s 750 mmHg 68%
    19:00 +8°C° 0 mm 6 m/s 751 mmHg 68%
    20:00 +7°C° 0 mm 5 m/s 751 mmHg 70%
    21:00 +6°C° 0 mm 5 m/s 752 mmHg 72%
    22:00 +6°C° 0 mm 5 m/s 752 mmHg 74%
    23:00 +6°C° 0 mm 5 m/s 753 mmHg 76%

    27 Septembre, Jeudi

    Heure Température Précipitation Vent Pression Humidité
    00:00 +5°C° 0 mm 4 m/s 753 mmHg 77%
    01:00 +5°C° 0 mm 4 m/s 754 mmHg 79%
    02:00 +4°C° 0 mm 4 m/s 754 mmHg 80%
    03:00 +4°C° 0 mm 4 m/s 754 mmHg 82%
    04:00 +4°C° 0 mm 4 m/s 755 mmHg 83%
    05:00 +3°C° 0 mm 4 m/s 755 mmHg 84%
    06:00 +3°C° 0 mm 4 m/s 756 mmHg 86%
    07:00 +3°C° 0 mm 4 m/s 756 mmHg 87%
    08:00 +4°C° 0 mm 4 m/s 756 mmHg 81%
    09:00 +6°C° 0 mm 5 m/s 756 mmHg 76%
    10:00 +7°C° 0 mm 5 m/s 757 mmHg 71%
    11:00 +8°C° 0 mm 5 m/s 757 mmHg 69%
    12:00 +8°C° 0 mm 5 m/s 757 mmHg 67%
    13:00 +9°C° 0 mm 5 m/s 757 mmHg 66%
    14:00 +9°C° 0 mm 5 m/s 757 mmHg 66%
    15:00 +9°C° 0 mm 5 m/s 757 mmHg 67%
    16:00 +10°C° 0 mm 4 m/s 756 mmHg 67%
    17:00 +8°C° 0 mm 4 m/s 756 mmHg 71%
    18:00 +8°C° 0 mm 3 m/s 756 mmHg 74%
    19:00 +7°C° 0 mm 3 m/s 756 mmHg 77%
    20:00 +7°C° 0 mm 3 m/s 757 mmHg 78%
    21:00 +5°C° 0 mm 3 m/s 757 mmHg 79%
    22:00 +5°C° 0 mm 3 m/s 757 mmHg 80%
    23:00 +5°C° 0 mm 3 m/s 756 mmHg 79%
    Voir plus